CAPE
0 0 0 0 0 0 0 0 0 0 0 0 0 0 0 0 0 0 0 0 0 0
0 0 0 0 0 0 0 0 0 0 0 0 0 0 0 0 0 0 0 0 0 0
0 0 0 0 0 0 0 0 0 0 0 0 0 0 0 0 0 0 0 0 0 0
0 0 0 0 0 0 0 0 0 0 0 0 0 0 0 0 0 0 0 0 0 0
0 0 0 0 0 0 0 0 0 0 0 0 0 0 0 0 0 0 0 0 0 0
0 0 0 0 0 0 0 0 0 0 0 0 0 0 0 0 0 0 0 0 0 0
0 0 0 0 0 0 0 0 0 0 0 0 0 0 0 0 0 0 0 0 0 0
0 0 0 0 0 0 0 0 0 0 0 0 0 0 0 0 0 0 0 0 0 0
0 0 0 0 0 0 0 0 0 0 0 0 0 0 0 0 0 0 0 0 0 0
0 0 0 0 0 0 0 0 0 0 0 0 0 0 0 0 0 0 0 0 0 0
0 0 0 0 0 0 0 0 0 0 0 0 0 0 0 0 0 0 0 0 0 0
0 0 0 0 0 0 0 0 0 0 0 0 0 0 0 0 0 0 0 0 0 0
0 0 0 0 0 0 0 0 0 0 0 0 0 0 0 0 0 0 0 0 0 0
0 0 0 0 0 0 0 0 0 0 0 0 0 0 0 0 0 0 0 0 0 0
CIN
-0 -0 -0 -0 -0 -0 -0 -0 -0 -0 -0 -0 -0 -0 -0 -0 -0 -0 -0 -0 -0 -0
-0 -0 -0 -0 -0 -0 -0 -0 -0 -0 -0 -0 -0 -0 -0 -0 -0 -0 -0 -0 -0 -0
-0 -0 -0 -0 -0 -0 -0 -0 -0 -0 -0 -0 -0 -0 -0 -0 -0 -0 -0 -0 -0 -0
-0 -0 -0 -0 -0 -0 -0 -0 -0 -0 -0 -0 -0 -0 -0 -0 -0 -0 -0 -0 -0 -0
-0 -0 -0 -0 -0 -0 -0 -0 -0 -0 -0 -0 -0 -0 -0 -0 -0 -0 -0 -0 -0 -0
-0 -0 -0 -0 -0 -0 -0 -0 -0 -0 -0 -0 -0 -0 -0 -0 -0 -0 -0 -0 -0 -0
-0 -0 -0 -0 -0 -0 -0 -0 -0 -0 -0 -0 -0 -0 -0 -0 -0 -0 -0 -0 -0 -0
-0 -0 -0 -0 -0 -0 -0 -0 -0 -0 -0 -0 -0 -0 -0 -0 -0 -0 -0 -0 -0 -0
-0 -0 -0 -0 -0 -0 -0 -0 -0 -0 -0 -0 -0 -0 -0 -0 -0 -0 -0 -0 -0 -0
-0 -0 -0 -0 -0 -0 -0 -0 -0 -0 -0 -0 -0 -0 -0 -0 -0 -0 -0 -0 -0 -0
-0 -0 -0 -0 -0 -0 -0 -0 -0 -0 -0 -0 -0 -0 -0 -0 -0 -0 -0 -0 -0 -0
-0 -0 -0 -0 -0 -0 -0 -0 -0 -0 -0 -0 -0 -0 -0 -0 -0 -0 -0 -0 -0 -0
-0 -0 -0 -0 -0 -0 -0 -0 -0 -0 -0 -0 -0 -0 -0 -0 -0 -0 -0 -0 -0 -0
-0 -0 -0 -0 -0 -0 -0 -0 -0 -0 -0 -0 -0 -0 -0 -0 -0 -0 -0 -0 -0 -0
Wind_Speed
22 19 17 14 10 7 4 3 7 8 8 9 10 11 12 12 12 12 12 13 14 16
18 17 16 13 8 5 1 3 6 8 10 11 12 13 14 14 15 15 15 16 16 17
17 15 13 9 9 6 2 2 5 8 11 12 13 13 14 15 17 17 18 18 19 20
15 13 12 11 9 7 3 2 4 7 10 11 13 14 15 16 17 18 20 20 21 21
13 12 12 12 11 7 6 4 4 7 10 11 13 14 15 17 18 19 21 22 23 24
15 14 14 13 12 9 8 6 5 7 9 11 13 15 16 17 19 20 21 23 24 26
17 17 15 13 12 11 10 8 7 8 9 12 14 15 17 18 19 20 22 23 24 26
16 16 15 15 14 13 12 11 10 10 11 13 14 15 17 19 20 21 23 24 25 27
19 18 17 17 16 16 15 14 13 12 12 14 15 16 17 19 21 22 24 25 26 27
22 21 20 19 19 19 18 17 16 15 15 15 16 17 18 19 20 22 23 25 27 29
24 24 23 22 22 21 21 20 19 18 17 17 17 18 18 19 20 22 23 25 27 28
26 26 26 26 26 25 24 23 22 20 19 18 19 18 18 19 20 23 24 25 26 27
29 29 29 29 29 28 26 26 24 22 21 20 20 19 19 19 21 24 25 26 26 27
32 32 31 31 30 29 29 27 26 24 23 22 21 21 20 19 20 23 25 27 28 28
Wind_Direction
185 185 185 184 178 173 152 81 26 27 31 29 27 24 21 18 15 12 7 4 2 359
188 190 191 190 189 190 171 29 19 17 17 19 17 17 16 13 10 9 7 3 360 357
193 195 197 202 203 206 219 359 7 9 8 10 10 12 13 9 7 5 4 2 359 356
203 204 208 212 214 215 240 304 350 360 1 5 5 6 5 4 2 360 358 358 356 354
218 217 217 217 216 229 227 276 320 345 350 354 356 358 357 356 357 355 354 353 354 352
219 218 219 220 222 231 233 254 298 324 336 343 347 349 350 351 350 350 350 350 350 350
218 219 223 230 232 236 240 254 277 302 321 332 339 342 344 346 346 346 347 348 349 348
234 234 237 239 243 246 248 254 272 294 309 322 329 335 338 341 342 342 344 345 347 347
252 252 245 247 249 252 250 257 270 281 297 310 320 327 331 335 336 338 340 342 344 345
256 253 251 255 255 252 251 258 264 274 289 300 312 320 326 329 332 335 338 340 342 343
257 256 259 259 257 257 257 255 262 270 281 294 305 314 320 325 329 332 335 337 340 342
259 258 261 260 259 261 259 259 261 270 276 287 298 306 314 321 325 328 331 335 340 342
265 263 263 262 263 264 262 260 262 266 274 281 292 300 307 314 320 323 328 332 337 340
269 267 266 267 265 263 263 263 260 263 271 279 287 295 301 307 314 319 324 329 333 336